Weather Roundup
Issued by NWS Corpus Christi, TX

Home | Current Version | Previous Version | Text Only | Print | Product List | Glossary On
Versions: 1 2 3 4 5 6 7 8 9 10 11 12 13 14 15 16 17 18 19 20 21 22 23 24 25 26 27 28 29 30 31 32 33 34 35 36 37 38 39 40 41 42 43 44 45 46 47 48 49 50
000
ASUS44 KCRP 212310
HRRCRP

SOUTH TEXAS REGIONAL WEATHER ROUNDUP
NATIONAL WEATHER SERVICE CORPUS CHRISTI TX
500 PM CST SAT JAN 21 2017


TXZ229>244-220000-
...CORPUS CHRISTI AREA OBSERVATIONS...

CITY           SKY/WX    TMP DP  RH WIND       PRES   REMARKS
CORPUS CHRISTI MOSUNNY   91  35  13 W12       29.40F
NAS CORPUS CHR SUNNY     73  65  75 SE13      29.42R
ROCKPORT       SUNNY     70  62  76 SE14      29.42S
KINGSVILLE NAS SUNNY     93  32  11 SW13      29.40S
ALICE          SUNNY     92  28  10 W14       29.39S
ORANGE GROVE   SUNNY     91  33  12 SW13G24   29.40F
FALFURRIAS     SUNNY     91  29  11 S12G21    29.41R
$$

...VICTORIA AREA OBSERVATIONS...

CITY           SKY/WX    TMP DP  RH WIND       PRES   REMARKS
VICTORIA       SUNNY     85  40  20 W8        29.42F
BEEVILLE       FAIR      89  40  17 SW9G16    29.40S
PLEASANTON     MOSUNNY   82  41  23 CALM      29.40S
SAN ANTONIO    PTSUNNY   78  39  24 NW8       29.42S
$$

...LAREDO AREA OBSERVATIONS...

CITY           SKY/WX    TMP DP  RH WIND       PRES   REMARKS
LAREDO         SUNNY     92  29  10 W14G25    29.40F
COTULLA        MOSUNNY   93  22   7 W14G26    29.37F
DEL RIO        PTSUNNY   70  40  33 NW18G33   29.52R
MCALLEN        SUNNY     92  44  19 SE12      29.42F
HEBBRONVILLE   SUNNY     90  27  10 SW8       29.43S
$$

...OTHER TEXAS OBSERVATIONS...

CITY           SKY/WX    TMP DP  RH WIND       PRES   REMARKS
BROWNSVILLE    SUNNY     87  59  38 S17       29.45S
HOUSTON        PTCLDY    76  54  46 W7        29.44R
COL. STATION   CLEAR     75  52  44 SW8       29.45R
AUSTIN         PTSUNNY   79  35  20 W6        29.43R
WACO           CLOUDY    65  57  75 S6        29.42S
FORT WORTH     CLOUDY    67  56  67 S7        29.40R THUNDER
WICHITA FALLS  PTCLDY    67  37  33 S12       29.34F
LUBBOCK        PTSUNNY   53  31  42 W25G36    29.39R
EL PASO        MOSUNNY   49  24  37 W37G59    29.67R
$$

...MARINE OBSERVATIONS...

STATION/POSITION TIME  SKY/WX   TEMP    WIND        PRES    VSBY  WAVE   SWELL
                                AIR SEA DIR/SP/G                  HT/PER HT/PER
                 (UTC)          (F)     (DEG/KT/KT) (MB)    (MI)  (FT/S) (FT/S)
PORT ARANSAS     2200            63 66  140/  9/ 10  996.6F
BUOY 90 E PORT A 2250            74 73  220/  8/ 10  997.6S         4/ 6   3/ 6
BUOY 45 SE BAFFI 2250            71     180/ 17/ 19  996.6S         3/ 7   2/ 7
BUOY 200 E PT IS 2250            76 75  200/ 17/ 19  999.7F         5/ 7   2/17
BUOY 15 E GALVES 2250            70 68  220/ 12/ 14  997.5R         3/ 6   2/ 6
$$




USA.gov is the U.S. government's official web portal to all federal, state and local government web resources and services.